Regional Weather Roundup
Issued by NWS

Home | Current Version | Previous Version | Graphics & Text | Print | Product List | Glossary On
Versions: 1 2 3 4 5 6 7 8 9 10 11 12 13 14 15 16 17 18 19 20 21 22 23 24 25 26 27 28 29 30 31 32 33 34 35 36 37 38 39 40 41 42 43 44 45 46 47 48 49 50
000
ASUS45 KTFX 240404
RWRMT
MONTANA HOURLY WEATHER ROUNDUP
NATIONAL WEATHER SERVICE GREAT FALLS MT
904 PM MST SUN NOV 23 2014

NOTE: "FAIR" INDICATES FEW OR NO CLOUDS BELOW 12000 FEET WITH NO
SIGNIFICANT WEATHER AND/OR OBSTRUCTIONS TO VISIBILITY.

* THESE STATIONS ARE NOT UNDER NWS QUALITY CONTROL. THEY DO NOT
   REPORT WEATHER SUCH AS PRECIPITATION OR FOG.

MTZ001>007-043-240500-
WEST OF THE DIVIDE
CITY           SKY/WX    TMP DP  RH WIND       PRES   REMARKS
KALISPELL      CLOUDY    34  32  92 SE10      29.91R WCI  26
MISSOULA       CLOUDY    34  32  92 CALM      29.98S
BUTTE          CLOUDY    30  19  64 SW10G21   29.90F WCI  21
MULLAN PASS    FOG       27  23  85 NW12G26   29.94R WCI  16
* ESSEX        N/A       31  30  96 N/A        N/A
* LINCOLN      N/A       30  29  96 W3         N/A
* LOOKOUT PASS N/A       29  29 100 NE2G9      N/A
* POLSON       N/A       30  30 100 SE1        N/A
* RONAN APT    MOCLDY    36  30  79 N/A        N/A
* SEELEY LAKE  N/A       30  29  96 E2         N/A
* THOMP F APT  PTCLDY    24  13  63 N3         N/A
* YAAK HILL    N/A       32  30  92 N/A        N/A
$$

MTZ008-052>055-240500-
SOUTHWEST MONTANA
CITY           SKY/WX    TMP DP  RH WIND       PRES   REMARKS
BOZEMAN        CLOUDY    36  19  50 SW9       29.90F WCI  29
DILLON         CLOUDY    28  21  75 SW7       29.96R WCI  21
* W YELLOWSTON CLOUDY    24  22  92 SW6G14     N/A   WCI  17
* ENNIS APT    CLOUDY    32  19  59 SE8        N/A   WCI  25
* THREE FORKS  CLOUDY    37  19  48 SW14G20    N/A   WCI  28
* BOULDER HILL N/A       29  20  69 S9G19      N/A   WCI  21
* MONIDA PASS  N/A       21  11  65 SE9        N/A   WCI  11
* RAYNOLDS PAS N/A       25  14  63 SW9        N/A   WCI  16
* WHITEHALL    N/A       35  19  52 W5G21      N/A   WCI  31
* WISE RIVER   N/A       27  24  88 W4G11      N/A
$$

MTZ009>010-012-014-046-048-049-054-240500-
EAST SLOPES AND CENTRAL MONTANA
CITY           SKY/WX    TMP DP  RH WIND       PRES   REMARKS
CUT BANK       MOCLDY    32  23  69 W15       29.73R WCI  22
GREAT FALLS    CLOUDY    36  21  54 SW13      29.77F WCI  27
HELENA         CLOUDY    37  25  62 W25G39    29.84F WCI  25
MALMSTROM AFB  CLOUDY    37  23  57 SW16      29.79S WCI  28
* DEARBORN     N/A       39  24  55 W2G7       N/A
* EAST GLACIER N/A       31  22  69 NW6G12     N/A   WCI  25
* MONARCH      N/A       32  17  54 SW12G22    N/A   WCI  23
* PENDROY      N/A       35  20  54 W13G20     N/A   WCI  26
* ROGERS PASS  N/A       28  25  89 SE12G21    N/A   WCI  18
* SAINT MARY   N/A       31  28  89 S11G24     N/A   WCI  22
* SWEET GRASS  N/A       33  23  67 W17G27     N/A   WCI  22
$$

MTZ011-013-016-021-035-040-045-047-050-051-240500-
NORTH CENTRAL MONTANA
CITY           SKY/WX    TMP DP  RH WIND       PRES   REMARKS
HAVRE          CLOUDY    36  25  64 W5        29.74S WCI  32
LEWISTOWN      CLOUDY    37  21  52 SW9       29.77F WCI  30
* N BAR RANCH  PTCLDY    32  18  56 W9        29.78F WCI  24
* CHESTER      N/A       34  24  67 SW7        N/A   WCI  28
* DENTON       N/A       37  22  55 SW10G16    N/A   WCI  30
* GEYSER       N/A       38  19  46 SW24G29    N/A   WCI  27
* JUDITH GAP   N/A       32  21  64 W8         N/A   WCI  25
* LOMA         N/A       39  25  57 SW8        N/A   WCI  33
$$

MTZ017>020-022>027-061-062-240500-
NORTHEAST MONTANA
CITY           SKY/WX    TMP DP  RH WIND       PRES   REMARKS
GLASGOW        CLEAR     16  10  77 SE5       29.81F WCI   8
GLENDIVE       CLEAR     10   9  96 W7        29.82F WCI  -1
JORDAN         PTCLDY    18  14  84 CALM      29.81R
SIDNEY         CLEAR     16  16 100 W7        29.84S WCI   6
WOLF POINT     CLEAR     14  10  84 NW8       29.84F WCI   3
* BEAVER HILL  N/A       15  13  92 W9         N/A   WCI   3
* CIRCLE       N/A       17  14  88 N/A        N/A
* LINDSAY DVD  N/A       14  12  92 NW12       N/A
* NAVAJO       N/A       16  13  88 NW11       N/A   WCI   3
* SACO         N/A       17  14  88 E5         N/A   WCI   9
$$

MTZ028>042-056>058-240500-
SOUTHCENTRAL AND SOUTHEAST MONTANA
CITY           SKY/WX    TMP DP  RH WIND       PRES   REMARKS
BAKER          CLEAR     19  16  88 W14       29.78S WCI   5
BILLINGS       CLOUDY    36  18  48 W7        29.84F WCI  30
LIVINGSTON     CLOUDY    37  18  46 SW23G32   29.87F WCI  26
MILES CITY     CLEAR     21  18  88 NE8       29.81F WCI  11
* LAUREL APT   CLOUDY    36  16  44 N/A        N/A
* ALZADA       N/A       29  22  75 W11        N/A   WCI  19
* HYSHAM       N/A       31  14  49 W1         N/A
* LAME DEER    N/A       30  16  56 W7         N/A   WCI  23
* REED POINT   N/A       40  18  41 W17        N/A   WCI  31
* ROSCOE HILL  N/A       34   5  29 NW5G11     N/A   WCI  29
$$

REGIONAL REPORTS...DAKOTAS
CITY           SKY/WX    TMP DP  RH WIND       PRES   REMARKS
WILLISTON      CLEAR      7   3  83 NW7       29.82R WCI  -5
DICKINSON      PTCLDY    18  12  77 NW13G23   29.72R WCI   5
BEACH          MOCLDY    18  16  92 NW9       29.79R WCI   7
CROSBY         FAIR       7   5  91 NW8       29.81S WCI  -6
BISMARCK       CLOUDY    19  12  74 N23G31    29.70R WCI   2
GRAND FORKS    LGT SNOW  18  12  77 N28G35    29.60R WCI  -1
FARGO          LGT SNOW  19  16  88 NW24G29   29.58R VSB 3    WCI   2
BUFFALO SD     PTCLDY    23  18  81 NW22G32   29.67S WCI   8
RAPID CITY     PTCLDY    36  19  50 NW24G39   29.71S WCI  24
$$

REGIONAL REPORTS...WYOMING/IDAHO/WASHINGTON
CITY           SKY/WX    TMP DP  RH WIND       PRES   REMARKS
SHERIDAN       CLOUDY    36  16  44 NW12      29.83F WCI  28
CODY           CLOUDY    36  16  44 W6        29.84F WCI  31
YELLOWSTONE LA CLOUDY    19  16  88 VRB6      29.93F WCI  11
SALMON         CLOUDY    37  23  57 W10G25    30.05R WCI  30
MULLAN PASS    FOG       27  23  85 NW12G26   29.94S WCI  16
SAND POINT     CLOUDY    37  36  96 S5G21     30.02R WCI  33
SPOKANE        FAIR      36  28  73 W13       30.06R WCI  27
$$

REGIONAL REPORTS...ALBERTA
CITY           SKY/WX    TMP DP  RH WIND       PRES   REMARKS
CALGARY        FAIR      34  16  48 NW15      29.74R WCI  24

$$




USA.gov is the U.S. government's official web portal to all federal, state and local government web resources and services.